Change the Weather History Date:

Wednesday, October 19, 2011

  Actual Average Record
Temperature  
Mean Temperature 33 °F 40 °F  
Max Temperature 42 °F 46 °F 55 °F (1991)
Min Temperature 24 °F 34 °F 22 °F (1974)
Degree Days  
Heating Degree Days 32 25  
Month to date heating degree days 431 436  
Since 1 July heating degree days 1523 1534  
Cooling Degree Days 0    
Month to date cooling degree days 0  
Year to date cooling degree days 0  
Moisture  
Dew Point 27 °F    
Average Humidity 0    
Maximum Humidity 0    
Minimum Humidity 0    
Precipitation  
Precipitation 0.00 in 0.27 in 1.14 in (1977)
Month to date precipitation 1.62 5.20  
Year to date precipitation 56.49 59.34  
Snow  
Snow 0.00 in 0.10 in 1.90 in (1996)
Month to date snowfall 0.0 0.4  
Since 1 July snowfall 0.0 0.4  
Since 1 September snowfall 0.0 0.4  
Snow Depth 0.00 in    
Sea Level Pressure  
Sea Level Pressure 29.69 in    
Wind  
Wind Speed 8 mph (NE)    
Max Wind Speed 10 mph    
Max Gust Speed 12 mph    
Visibility 10 miles    
Events Rain    
T = Trace of Precipitation, MM = Missing Value Source: NWS Daily Summary

Daily Weather History Graph

Daily Weather History Graph

Search for Another Location

Airport or City:

Trip Planner

Search our weather history database for the weather conditions in past years. The results will help you decide how hot, cold, wet, or windy it might be!

Date:

Astronomy

Oct. 19, 2011 Rise Set
Actual Time 8:53 AM AKDT 6:55 PM AKDT
Civil Twilight 8:13 AM AKDT 7:35 PM AKDT
Nautical Twilight 7:28 AM AKDT 8:20 PM AKDT
Astronomical Twilight 6:42 AM AKDT 9:05 PM AKDT
Moon No Moon Rise 4:04 PM AKDT (10/19)
Length of Visible Light 11h 21m
Length of Day
10h 01m
Waning Gibbous, 53% of the Moon is Illuminated
Oct 19
Waning Gibbous
Oct 19
Last Quarter
Oct 26
New
Nov 2
First Quarter
Nov 10
Full

Hourly Weather History & Observations

Time (AKDT) Temp. Windchill Dew Point Humidity Pressure Visibility Wind Dir Wind Speed Gust Speed Precip Events Conditions
12:53 AM 30.0 °F 23.2 °F 25.0 °F 82% 29.78 in 10.0 mi WNW 6.9 mph - N/A   Clear
1:53 AM 28.9 °F 22.8 °F 25.0 °F 85% 29.77 in 10.0 mi West 5.8 mph - N/A   Clear
2:53 AM 28.0 °F 21.7 °F 24.1 °F 85% 29.77 in 10.0 mi West 5.8 mph - N/A   Clear
3:53 AM 27.0 °F 20.5 °F 24.1 °F 89% 29.76 in 10.0 mi West 5.8 mph - N/A   Clear
4:53 AM 27.0 °F 19.5 °F 24.1 °F 89% 29.75 in 10.0 mi West 6.9 mph - N/A   Clear
5:53 AM 28.0 °F 22.8 °F 24.1 °F 85% 29.75 in 10.0 mi WNW 4.6 mph - N/A   Clear
6:53 AM 26.1 °F 18.4 °F 23.0 °F 88% 29.74 in 10.0 mi West 6.9 mph - N/A   Clear
7:53 AM 25.0 °F 17.1 °F 21.9 °F 88% 29.74 in 10.0 mi West 6.9 mph - N/A   Clear
8:53 AM 24.1 °F 18.2 °F 21.0 °F 88% 29.73 in 10.0 mi West 4.6 mph - N/A   Partly Cloudy
9:53 AM 27.0 °F 20.5 °F 23.0 °F 85% 29.73 in 10.0 mi WNW 5.8 mph - N/A   Clear
10:53 AM 32.0 °F 27.5 °F 26.1 °F 79% 29.73 in 10.0 mi West 4.6 mph - N/A   Clear
11:53 AM 39.9 °F - 27.0 °F 60% 29.73 in 10.0 mi Calm Calm - N/A   Clear
12:53 PM 41.0 °F 39.0 °F 26.1 °F 55% 29.72 in 10.0 mi ENE 3.5 mph - N/A   Clear
1:53 PM 42.1 °F 37.1 °F 28.0 °F 58% 29.71 in 10.0 mi East 8.1 mph - N/A   Clear
2:53 PM 43.0 °F 37.7 °F 28.9 °F 58% 29.69 in 10.0 mi East 9.2 mph - N/A   Clear
3:53 PM 43.0 °F 36.8 °F 30.0 °F 60% 29.68 in 10.0 mi East 11.5 mph - N/A   Scattered Clouds
4:53 PM 43.0 °F 36.4 °F 30.0 °F 60% 29.66 in 10.0 mi East 12.7 mph - N/A   Scattered Clouds
5:53 PM 42.1 °F 36.1 °F 30.0 °F 62% 29.65 in 10.0 mi ESE 10.4 mph - N/A   Scattered Clouds
6:53 PM 39.9 °F 33.9 °F 28.9 °F 65% 29.64 in 10.0 mi SE 9.2 mph - N/A   Mostly Cloudy
7:53 PM 42.1 °F 38.4 °F 30.9 °F 65% 29.63 in 10.0 mi East 5.8 mph - N/A   Mostly Cloudy
8:53 PM 43.0 °F 35.4 °F 30.9 °F 62% 29.62 in 10.0 mi East 16.1 mph - N/A   Mostly Cloudy
9:53 PM 43.0 °F 34.5 °F 33.1 °F 68% 29.60 in 10.0 mi East 19.6 mph - N/A   Overcast
10:53 PM 43.0 °F 34.5 °F 33.1 °F 68% 29.59 in 10.0 mi East 19.6 mph - N/A   Overcast
11:18 PM 42.8 °F 34.5 °F 33.8 °F 70% 29.57 in 10.0 mi East 18.4 mph 27.6 mph 0.00 in Rain Light Rain
11:53 PM 42.1 °F 33.1 °F 35.1 °F 76% 29.57 in 10.0 mi East 20.7 mph - 0.00 in Rain Light Rain